Showing default

SDA_1681, 65991

Orbit data source: Space-Track

SDA_1681, 65991 is a payload satellite owned by SDA (US) in LEO that was launched on Wed, 15 Oct 2025 UTC via an FALCON 9 launch vehicle from the Air Force Western Test Range (AFWTR). Payload-class satellites include a variety of spacecraft equipped with specific instruments for various scientific and technological missions. These include communications satellites like Starlink; space stations such as the ISS; scientific satellites like the Hubble; Earth observation satellites from companies like Planet Labs, Umbra, and HawkEye 360; GPS; miniature CubeSats for education and research; and military/defense satellites.

Loading next visibility...
Identifier
65991, 2025-230T
Orbit
LEO
Country
Flag of USUS
Related business
Manufacturer
LMSSD/TERRAN
Mission
Operational Defense Communications
Bus & Motor
LM-T1TL, Unknown motor
Mass
~400 kg wet, ~400 kg dry
Launch date (UTC)
2025-10-15 (8 months ago)
Launch vehicle
FALCON 9
Launch site
Air Force Western Test Range (AFWTR)
Object type
Payload
Rocket body
Debris
Shape & HBR
Box + 2 Pan, 1.8 m
Radar Cross Section
0.674 m², Large (>1 m²)

Expand to show TLE details & history
Last TLE update: 12 hours ago

TLE from 12 hours ago
0 SDA_1681
1 65991U 25230T   26171.38239457  .00000121  00000-0  95974-4 0  9992
2 65991  81.2994 208.5818 0004223 173.9562 186.1647 13.85304657 34261
Epoch: 2026-06-20T09:10Z
TLE epoch observation values (Epoch: 2026-06-20T09:10:38.890Z)
Latitude
-0.00004°
Longitude
162.32193°
Altitude
951.074 km
Speed
7.375 km/s
True Right ascension
13h 54m 19s
True Declination
0° 00' 00"
Sunlit
Object was in daylight at epoch
Visualization orbit readout
Latitude
Unknown
Longitude
Unknown
Altitude
Unknown
Speed
Unknown
Apparent Right ascension
Unknown
Apparent Declination
Unknown
Sunlit
N/A
Visualization observer readout
Local Sidereal Time
08:33:37
Azimuth
Unknown
Elevation
Unknown
Doppler factor
Unknown
Orbital elements
Apogee altitude
945.428 km
Perigee altitude
939.245 km
Semi-major axis
7,320.474 km
Eccentricity
0.00042
Inclination
81.2994°
RAAN
208.5818°
Arg. of periapsis
173.9562°
True anomaly
186.15951°
Mean anomaly
186.1647°
Eccentric anomaly
186.1621°
Mean motion
3.46525 °/min
Orbital period
103.89 mins
BSTAR
0.000095974
Loading maneuver chart data...
Computing Atmospheric mass density...
Loading historical data...
Loading historical data...
Loading historical data...
Loading historical data...
Loading historical data...
Loading historical data...
Loading historical data...

Documentation

Showing up to 5 results
|